| time (UTC) | temp F | wind direction | speed MPH | gust MPH | rain 1hr in | rain 24hr in | rain mn in | humidity % | barometer mb |
| 20260504004537 | 85 | 360 | 6.0 | 10.0 | 0.00 | 0.00 | 0.00 | 11 | 1005.0 |
| 20260504003506 | 85 | 162 | 0.0 | 10.0 | 0.00 | 0.00 | 0.00 | 12 | 1005.1 |
| 20260504003036 | 85 | 360 | 2.0 | 9.0 | 0.00 | 0.00 | 0.00 | 13 | 1005.2 |
| 20260504002507 | 85 | 225 | 3.0 | 9.0 | 0.00 | 0.00 | 0.00 | 13 | 1005.3 |
| 20260504002006 | 84 | 360 | 6.0 | 10.0 | 0.00 | 0.00 | 0.00 | 13 | 1005.2 |
| 20260504001506 | 84 | 360 | 5.0 | 14.0 | 0.00 | 0.00 | 0.00 | 13 | 1005.2 |
| 20260504001006 | 84 | 360 | 6.0 | 14.0 | 0.00 | 0.00 | 0.00 | 13 | 1005.3 |
| 20260504000507 | 85 | 360 | 7.0 | 12.0 | 0.00 | 0.00 | 0.00 | 12 | 1005.5 |
| 20260503235536 | 85 | 226 | 1.0 | 13.0 | 0.00 | 0.00 | 0.00 | 12 | 1005.8 |
| 20260503235036 | 86 | 218 | 6.0 | 13.0 | 0.00 | 0.00 | 0.00 | 11 | 1005.8 |
| 20260503234506 | 86 | 360 | 6.0 | 18.0 | 0.00 | 0.00 | 0.00 | 11 | 1005.7 |
| 20260503234036 | 86 | 360 | 9.0 | 18.0 | 0.00 | 0.00 | 0.00 | 11 | 1005.8 |
| 20260503233036 | 86 | 360 | 8.0 | 12.0 | 0.00 | 0.00 | 0.00 | 11 | 1005.7 |
| 20260503232537 | 86 | 360 | 1.0 | 9.0 | 0.00 | 0.00 | 0.00 | 13 | 1005.7 |
| 20260503232006 | 86 | 187 | 2.0 | 12.0 | 0.00 | 0.00 | 0.00 | 12 | 1005.9 |
| 20260503231536 | 87 | 360 | 9.0 | 12.0 | 0.00 | 0.00 | 0.00 | 12 | 1005.9 |
| 20260503231036 | 86 | 360 | 6.0 | 15.0 | 0.00 | 0.00 | 0.00 | 12 | 1005.9 |
| 20260503230506 | 87 | 360 | 3.0 | 15.0 | 0.00 | 0.00 | 0.00 | 12 | 1006.1 |
| 20260503225536 | 86 | 111 | 11.0 | 15.0 | 0.00 | 0.00 | 0.00 | 12 | 1006.2 |
| 20260503225006 | 86 | 360 | 9.0 | 11.0 | 0.00 | 0.00 | 0.00 | 12 | 1006.3 |
| 20260503224506 | 86 | 360 | 3.0 | 13.0 | 0.00 | 0.00 | 0.00 | 12 | 1006.4 |
| 20260503223506 | 86 | 360 | 10.0 | 14.0 | 0.00 | 0.00 | 0.00 | 12 | 1006.6 |
| 20260503223036 | 86 | 182 | 1.0 | 13.0 | 0.00 | 0.00 | 0.00 | 12 | 1006.7 |
| 20260503222536 | 86 | 173 | 2.0 | 14.0 | 0.00 | 0.00 | 0.00 | 12 | 1006.7 |
| 20260503222006 | 86 | 360 | 7.0 | 14.0 | 0.00 | 0.00 | 0.00 | 12 | 1007.0 |
| 20260503221536 | 86 | 360 | 3.0 | 7.0 | 0.00 | 0.00 | 0.00 | 12 | 1006.9 |
| 20260503221036 | 86 | 360 | 4.0 | 7.0 | 0.00 | 0.00 | 0.00 | 11 | 1007.2 |
| 20260503220506 | 86 | 360 | 4.0 | 7.0 | 0.00 | 0.00 | 0.00 | 11 | 1007.2 |
| 20260503220036 | 86 | 193 | 5.0 | 10.0 | 0.00 | 0.00 | 0.00 | 11 | 1007.3 |
| 20260503215536 | 86 | 360 | 2.0 | 13.0 | 0.00 | 0.00 | 0.00 | 11 | 1007.3 |
| 20260503215006 | 87 | 360 | 4.0 | 13.0 | 0.00 | 0.00 | 0.00 | 11 | 1007.7 |
| 20260503214506 | 86 | 160 | 4.0 | 7.0 | 0.00 | 0.00 | 0.00 | 12 | 1007.5 |
| 20260503214036 | 86 | 142 | 1.0 | 11.0 | 0.00 | 0.00 | 0.00 | 12 | 1007.7 |
| 20260503213507 | 86 | 360 | 5.0 | 11.0 | 0.00 | 0.00 | 0.00 | 11 | 1007.7 |
| 20260503212537 | 87 | 360 | 3.0 | 8.0 | 0.00 | 0.00 | 0.00 | 11 | 1008.2 |
| 20260503211537 | 87 | 360 | 6.0 | 9.0 | 0.00 | 0.00 | 0.00 | 10 | 1008.1 |
| 20260503211007 | 86 | 360 | 6.0 | 9.0 | 0.00 | 0.00 | 0.00 | 10 | 1008.3 |
| 20260503210506 | 86 | 360 | 1.0 | 9.0 | 0.00 | 0.00 | 0.00 | 9 | 1008.3 |
| 20260503205536 | 86 | 360 | 0.0 | 7.0 | 0.00 | 0.00 | 0.00 | 10 | 1008.5 |
| 20260503205036 | 87 | 360 | 2.0 | 12.0 | 0.00 | 0.00 | 0.00 | 9 | 1008.7 |
| 20260503204036 | 89 | 75 | 3.0 | 8.0 | 0.00 | 0.00 | 0.00 | 9 | 1009.1 |
| 20260503203536 | 89 | 360 | 5.0 | 8.0 | 0.00 | 0.00 | 0.00 | 8 | 1009.3 |
| 20260503203006 | 88 | 159 | 2.0 | 12.0 | 0.00 | 0.00 | 0.00 | 9 | 1009.6 |
| 20260503202536 | 89 | 82 | 3.0 | 12.0 | 0.00 | 0.00 | 0.00 | 9 | 1009.8 |
| 20260503201536 | 89 | 355 | 6.0 | 11.0 | 0.00 | 0.00 | 0.00 | 9 | 1010.0 |
| 20260503200506 | 87 | 76 | 7.0 | 12.0 | 0.00 | 0.00 | 0.00 | 9 | 1010.0 |
| 20260503200006 | 87 | 360 | 3.0 | 9.0 | 0.00 | 0.00 | 0.00 | 9 | 1010.0 |
| 20260503195506 | 87 | 360 | 2.0 | 12.0 | 0.00 | 0.00 | 0.00 | 9 | 1010.4 |
| 20260503195036 | 87 | 100 | 3.0 | 12.0 | 0.00 | 0.00 | 0.00 | 9 | 1010.6 |
| 20260503194537 | 87 | 79 | 11.0 | 12.0 | 0.00 | 0.00 | 0.00 | 9 | 1010.8 |
| 20260503193506 | 87 | 65 | 2.0 | 12.0 | 0.00 | 0.00 | 0.00 | 9 | 1010.9 |
| 20260503193006 | 88 | 360 | 6.0 | 16.0 | 0.00 | 0.00 | 0.00 | 9 | 1011.1 |
| 20260503192506 | 87 | 360 | 8.0 | 16.0 | 0.00 | 0.00 | 0.00 | 9 | 1011.3 |
| 20260503192007 | 87 | 360 | 8.0 | 12.0 | 0.00 | 0.00 | 0.00 | 9 | 1011.4 |
| 20260503191506 | 86 | 360 | 3.0 | 10.0 | 0.00 | 0.00 | 0.00 | 10 | 1011.3 |
| 20260503191007 | 85 | 360 | 8.0 | 10.0 | 0.00 | 0.00 | 0.00 | 9 | 1011.3 |
| 20260503190037 | 86 | 360 | 9.0 | 10.0 | 0.00 | 0.00 | 0.00 | 9 | 1011.5 |
| 20260503185536 | 86 | 360 | 9.0 | 9.0 | 0.00 | 0.00 | 0.00 | 8 | 1011.7 |
| 20260503184506 | 85 | 97 | 6.0 | 13.0 | 0.00 | 0.00 | 0.00 | 9 | 1011.7 |
| 20260503184006 | 86 | 360 | 4.0 | 13.0 | 0.00 | 0.00 | 0.00 | 8 | 1011.9 |
| 20260503183507 | 85 | 360 | 5.0 | 10.0 | 0.00 | 0.00 | 0.00 | 8 | 1011.9 |
| 20260503183007 | 85 | 360 | 3.0 | 11.0 | 0.00 | 0.00 | 0.00 | 7 | 1011.9 |
| 20260503182507 | 86 | 113 | 2.0 | 15.0 | 0.00 | 0.00 | 0.00 | 7 | 1012.2 |
| 20260503182006 | 85 | 136 | 7.0 | 15.0 | 0.00 | 0.00 | 0.00 | 8 | 1011.9 |
| 20260503181506 | 84 | 136 | 1.0 | 12.0 | 0.00 | 0.00 | 0.00 | 7 | 1012.1 |
| 20260503181006 | 85 | 138 | 4.0 | 12.0 | 0.00 | 0.00 | 0.00 | 8 | 1012.2 |
| 20260503180007 | 83 | 360 | 5.0 | 11.0 | 0.00 | 0.00 | 0.00 | 8 | 1012.1 |
| 20260503175005 | 84 | 111 | 8.0 | 11.0 | 0.00 | 0.00 | 0.00 | 8 | 1012.7 |
| 20260503174505 | 84 | 360 | 2.0 | 10.0 | 0.00 | 0.00 | 0.00 | 8 | 1012.8 |
| 20260503174006 | 84 | 360 | 7.0 | 10.0 | 0.00 | 0.00 | 0.00 | 8 | 1012.7 |
| 20260503173505 | 83 | 360 | 5.0 | 11.0 | 0.00 | 0.00 | 0.00 | 8 | 1012.5 |
| 20260503173035 | 83 | 122 | 1.0 | 11.0 | 0.00 | 0.00 | 0.00 | 9 | 1012.7 |
| 20260503172536 | 82 | 360 | 3.0 | 10.0 | 0.00 | 0.00 | 0.00 | 9 | 1012.7 |
| 20260503172006 | 82 | 360 | 2.0 | 10.0 | 0.00 | 0.00 | 0.00 | 9 | 1012.8 |
| 20260503171005 | 81 | 115 | 3.0 | 9.0 | 0.00 | 0.00 | 0.00 | 9 | 1012.5 |
| 20260503170505 | 81 | 50 | 6.0 | 7.0 | 0.00 | 0.00 | 0.00 | 9 | 1012.6 |
| 20260503151005 | 71 | 292 | 1.0 | 3.0 | 0.00 | 0.00 | 0.00 | 14 | 1013.1 |
| 20260503130536 | 57 | 304 | 2.0 | 7.0 | 0.00 | 0.00 | 0.00 | 15 | 1012.1 |
| 20260503110505 | 63 | 299 | 1.0 | 5.0 | 0.00 | 0.00 | 0.00 | 13 | 1012.1 |
| 20260503090505 | 64 | 360 | 1.0 | 4.0 | 0.00 | 0.00 | 0.00 | 13 | 1012.5 |
| 20260503080506 | 67 | 360 | 4.0 | 6.0 | 0.00 | 0.00 | 0.00 | 11 | 1013.3 |
| 20260503072535 | 66 | 360 | 2.0 | 3.0 | 0.00 | 0.00 | 0.00 | 13 | 1013.4 |
| 20260503072035 | 67 | 284 | 2.0 | 3.0 | 0.00 | 0.00 | 0.00 | 13 | 1013.5 |
| 20260503071535 | 67 | 283 | 1.0 | 3.0 | 0.00 | 0.00 | 0.00 | 13 | 1013.5 |
| 20260503071005 | 68 | 360 | 2.0 | 3.0 | 0.00 | 0.00 | 0.00 | 13 | 1013.4 |
| 20260503070505 | 68 | 284 | 2.0 | 3.0 | 0.00 | 0.00 | 0.00 | 13 | 1013.5 |
| 20260503055005 | 70 | 360 | 2.0 | 6.0 | 0.00 | 0.00 | 0.00 | 11 | 1013.2 |
| 20260503054035 | 70 | 360 | 6.0 | 7.0 | 0.00 | 0.00 | 0.00 | 11 | 1013.3 |
| 20260503053504 | 70 | 360 | 2.0 | 7.0 | 0.00 | 0.00 | 0.00 | 11 | 1013.3 |
| 20260503052534 | 70 | 360 | 4.0 | 8.0 | 0.00 | 0.00 | 0.00 | 11 | 1013.2 |
| 20260503051034 | 70 | 360 | 3.0 | 6.0 | 0.00 | 0.00 | 0.00 | 11 | 1013.2 |
| 20260503050505 | 70 | 360 | 4.0 | 6.0 | 0.00 | 0.00 | 0.00 | 11 | 1013.0 |
| 20260503050035 | 70 | 360 | 4.0 | 6.0 | 0.00 | 0.00 | 0.00 | 12 | 1013.2 |
| 20260503045535 | 70 | 360 | 2.0 | 6.0 | 0.00 | 0.00 | 0.00 | 12 | 1013.1 |
| 20260503045005 | 70 | 305 | 0.0 | 6.0 | 0.00 | 0.00 | 0.00 | 11 | 1013.1 |
| 20260503044534 | 71 | 360 | 1.0 | 7.0 | 0.00 | 0.00 | 0.00 | 11 | 1013.0 |
| 20260503044005 | 71 | 360 | 3.0 | 7.0 | 0.00 | 0.00 | 0.00 | 11 | 1013.2 |
| 20260503043535 | 71 | 360 | 3.0 | 6.0 | 0.00 | 0.00 | 0.00 | 9 | 1013.1 |
| 20260503043035 | 71 | 360 | 3.0 | 5.0 | 0.00 | 0.00 | 0.00 | 9 | 1013.1 |
| 20260503042505 | 71 | 360 | 1.0 | 3.0 | 0.00 | 0.00 | 0.00 | 10 | 1013.0 |
| 20260503042035 | 72 | 360 | 1.0 | 2.0 | 0.00 | 0.00 | 0.00 | 12 | 1013.0 |
| 20260503041535 | 72 | 110 | 0.0 | 2.0 | 0.00 | 0.00 | 0.00 | 12 | 1012.9 |
| 20260503041035 | 72 | 360 | 0.0 | 1.0 | 0.00 | 0.00 | 0.00 | 12 | 1012.9 |
| 20260503040505 | 73 | 360 | 0.0 | 0.0 | 0.00 | 0.00 | 0.00 | 11 | 1012.8 |
| 20260503040035 | 73 | 360 | 0.0 | 0.0 | 0.00 | 0.00 | 0.00 | 12 | 1012.8 |
| 20260503035035 | 74 | 360 | 0.0 | 0.0 | 0.00 | 0.00 | 0.00 | 11 | 1012.7 |
| 20260503034534 | 74 | 360 | 0.0 | 0.0 | 0.00 | 0.00 | 0.00 | 11 | 1012.7 |
| 20260503034034 | 74 | 360 | 0.0 | 0.0 | 0.00 | 0.00 | 0.00 | 11 | 1012.6 |
| 20260503033535 | 75 | 116 | 0.0 | 0.0 | 0.00 | 0.00 | 0.00 | 10 | 1012.5 |
| 20260503033004 | 75 | 128 | 0.0 | 0.0 | 0.00 | 0.00 | 0.00 | 11 | 1012.5 |
| 20260503032534 | 76 | 360 | 0.0 | 0.0 | 0.00 | 0.00 | 0.00 | 10 | 1012.5 |
| 20260503031505 | 76 | 360 | 0.0 | 0.0 | 0.00 | 0.00 | 0.00 | 9 | 1012.4 |
| 20260503031035 | 77 | 126 | 0.0 | 0.0 | 0.00 | 0.00 | 0.00 | 9 | 1012.4 |
| 20260503030535 | 77 | 360 | 0.0 | 0.0 | 0.00 | 0.00 | 0.00 | 9 | 1012.3 |
| 20260503030034 | 78 | 360 | 0.0 | 1.0 | 0.00 | 0.00 | 0.00 | 9 | 1012.4 |
| 20260503025534 | 78 | 360 | 0.0 | 1.0 | 0.00 | 0.00 | 0.00 | 8 | 1011.9 |
| 20260503025034 | 79 | 127 | 0.0 | 0.0 | 0.00 | 0.00 | 0.00 | 8 | 1011.8 |
| 20260503024504 | 79 | 118 | 0.0 | 1.0 | 0.00 | 0.00 | 0.00 | 8 | 1011.8 |
| 20260503024034 | 80 | 360 | 0.0 | 2.0 | 0.00 | 0.00 | 0.00 | 7 | 1011.9 |
| 20260503023534 | 80 | 360 | 1.0 | 3.0 | 0.00 | 0.00 | 0.00 | 7 | 1011.8 |
| 20260503023004 | 80 | 360 | 1.0 | 3.0 | 0.00 | 0.00 | 0.00 | 7 | 1011.8 |
| 20260503022535 | 80 | 360 | 2.0 | 3.0 | 0.00 | 0.00 | 0.00 | 6 | 1011.9 |
| 20260503022005 | 80 | 360 | 1.0 | 3.0 | 0.00 | 0.00 | 0.00 | 7 | 1011.8 |
| 20260503021505 | 81 | 360 | 1.0 | 3.0 | 0.00 | 0.00 | 0.00 | 6 | 1011.8 |
| 20260503021005 | 81 | 360 | 0.0 | 3.0 | 0.00 | 0.00 | 0.00 | 6 | 1012.0 |
| 20260503020535 | 81 | 360 | 1.0 | 3.0 | 0.00 | 0.00 | 0.00 | 6 | 1012.0 |
| 20260503020005 | 81 | 360 | 1.0 | 5.0 | 0.00 | 0.00 | 0.00 | 6 | 1012.0 |
| 20260503014504 | 82 | 360 | 3.0 | 3.0 | 0.00 | 0.00 | 0.00 | 6 | 1011.6 |
| 20260503014035 | 82 | 360 | 1.0 | 4.0 | 0.00 | 0.00 | 0.00 | 6 | 1011.7 |
| 20260503013035 | 82 | 360 | 3.0 | 6.0 | 0.00 | 0.00 | 0.00 | 5 | 1011.7 |
| 20260503012504 | 82 | 360 | 5.0 | 6.0 | 0.00 | 0.00 | 0.00 | 6 | 1011.9 |
| 20260503012035 | 83 | 360 | 1.0 | 6.0 | 0.00 | 0.00 | 0.00 | 4 | 1011.8 |
| 20260503011535 | 83 | 360 | 3.0 | 5.0 | 0.00 | 0.00 | 0.00 | 5 | 1011.9 |
| 20260503010534 | 84 | 360 | 4.0 | 5.0 | 0.00 | 0.00 | 0.00 | 5 | 1011.9 |
| 20260503010034 | 84 | 360 | 5.0 | 7.0 | 0.00 | 0.00 | 0.00 | 6 | 1012.0 |
| 20260503005534 | 83 | 360 | 1.0 | 8.0 | 0.00 | 0.00 | 0.00 | 5 | 1011.9 |